Regional Weather Roundup
Issued by NWS Cleveland, OH

Home | Current Version | Previous Version | Graphics & Text | Print | Product List | Glossary On
Versions: 1 2 3 4 5 6 7 8 9 10 11 12 13 14 15 16 17 18 19 20 21 22 23 24 25 26 27 28 29 30 31 32 33 34 35 36 37 38 39 40 41 42 43 44 45 46 47 48 49 50
000
ASUS41 KCLE 262200
RWRCLE
OHIO REGIONAL WEATHER ROUNDUP
NATIONAL WEATHER SERVICE WILMINGTON, OH
500 PM EST FRI DEC 26 2014

NOTE: "FAIR" INDICATES FEW OR NO CLOUDS BELOW 12,000 FEET WITH NO
SIGNIFICANT WEATHER AND/OR OBSTRUCTIONS TO VISIBILITY.

OHZ001>008-015>018-024>027-034-035-043-044-262300-
   NORTHWEST OHIO

CITY           SKY/WX    TMP DP  RH WIND       PRES   REMARKS
DEFIANCE       PTCLDY    46  39  76 S6        30.11R
FINDLAY        PTCLDY    46  38  73 S13       30.12R
TOLEDO EXPRESS PTCLDY    45  38  76 S7        30.10S
TOLEDO METCALF PTCLDY    45  37  73 S7        30.11S
LIMA           PTCLDY    47  38  71 S9        30.12R
$$

OHZ009>014-019>023-028>033-038-089-262300-
   NORTHEAST OHIO

CITY           SKY/WX    TMP DP  RH WIND       PRES   REMARKS
CLE-HOPKINS    PTCLDY    47  35  63 S8        30.15S
CLE-LAKEFRONT  PTCLDY    49  35  58 S12       30.12S
CUY CO. ARPT   MOCLDY    48  37  66 S10G17    30.14R
LORAIN-ELYRIA  CLEAR     46  37  71 SW12      30.13S
ASHTABULA      PTCLDY    46  33  60 S8        30.15R
AKRON-CANTON   MOCLDY    45  34  65 S12       30.16R
WOOSTER        NOT AVBL
MANSFIELD      CLEAR     43  36  76 S12       30.14S
YOUNGSTOWN     MOCLDY    47  32  56 SW16      30.16R
$$

OHZ042-051>053-060>062-070>072-077>081-262300-
  SOUTHWEST OHIO

CITY           SKY/WX    TMP DP  RH WIND       PRES   REMARKS
CINC-COVINGTON CLOUDY    50  33  52 S9        30.17F
CINC-LUNKEN    CLOUDY    50  36  58 S10       30.19S
HAMILTON       CLOUDY    50  35  56 S5        30.18S
DAYTON         NOT AVBL
WRIGHT-PAT AFB CLOUDY    49  36  61 S9        30.16S
DAYTON GENERAL CLOUDY    47  37  68 S9        30.16S
WILMINGTON     CLOUDY    45  37  73 S6        30.18R
$$

OHZ036-037-039>041-045>050-054>059-063>069-073>076-082>088-262300-
  CENTRAL AND SOUTHEAST OHIO

CITY           SKY/WX    TMP DP  RH WIND       PRES   REMARKS
COLUMBUS       CLOUDY    46  36  68 S7        30.19R
OSU AIRPORT    CLOUDY    46  37  71 S8        30.17S
BOLTON FIELD   CLOUDY    46  37  71 S8        30.19S
RICKENBACK AFB NOT AVBL
NEWARK         CLOUDY    46  35  65 S6        30.18S
MARION         PTCLDY    45  37  73 S14       30.14F
LANCASTER      CLOUDY    47  36  65 S7        30.20R
ZANESVILLE     CLOUDY    45  33  63 S7        30.20S
NEW PHILLY     PTCLDY    47  34  60 S3        30.20S
$$


USA.gov is the U.S. government's official web portal to all federal, state and local government web resources and services.